Starlink 35925

operational
NORAD ID: 66887 Int'l Des: 2025-283 Owner: SPXS Country: US Constellation: starlink
LEOCIRCULAR

About Starlink 35925

Description loading...

Live Position

Loading 3D Globe...

Upcoming Passes

Altitude History

Altitude vs Time

uPlot chart will show altitude changes over time

Two-Line Element Set

1 66887U 25283K 25347.25002315 -.01218230 44439-3 -33159-2 0 9993
2 66887 53.1552 71.3553 0000968 76.1301 184.6780 15.93513295 2518
Epoch: Dec 13, 2025 • Age: 20 hours

Current Status

Altitude 309.5 km
Velocity 7.72 km/s
Sub-Earth Point -35.51°S, 75°W
Launch Date Dec 4, 2025
Age 9 days
Type internet

Technical Details

Classification Payload
Mass 575.00 kg
Dry Mass 530.00 kg
Total Mass 575.00 kg
Length 0.30 m
Diameter 4.10 m
Span 29.00 m
Shape Box + pan
Manufacturer SPXS
Bus Type Starlink V2MO
Phase Status In Orbit
Owner/State SPXS/US

Large Constellations

Loading constellations...